Location: Elstree
(51.6403°N, 0.2969°W)
Time: 00:54:57
(UTC+00:00)

Cosmos 1503 Rocket - Pass Details

Date: 03 March 2021
Orbit: 753 x 790 km, 74.0° (Epoch: 11 April)

Event Time Altitude Azimuth Distance (km) Brightness Sun altitude
Rises 18:27:10 0° 336° (NNW) 3,237 7.6 -7.3°
Reaches altitude 10° 18:29:35 10° 339° (NNW) 2,303 6.8 -7.7°
Maximum altitude 18:34:46 64° 61° (ENE) 838 4.0 -8.5°
Drops below altitude 10° 18:39:53 10° 144° (SE) 2,275 6.1 -9.3°
Sets 18:42:16 0° 147° (SSE) 3,195 6.9 -9.6°
